www.pogodaiklimat.ru

Погода и климат >> Архив погоды >> Россия >> Красноярский край >> Усть-Уса


ПОГОДА в Усть-Усе

  • Прогноз погоды в Усть-Усе
  • Монитор погоды в Усть-Усе

АРХИВ ПОГОДЫ в Усть-Усе

Время (UTC), дата Ветер
(напр.,м/с)
 
Видим.   Явления Облачность Т
(С)
Тd
(С)
f
(%)
Тe
(С)
Тes
(С)
Комфортность P
(гПа)
Po
(гПа)
Тmin
(С)
Tmax
(С)
R
(мм)
R24
(мм)
S
(см)
06 9.01 штиль 0 50 км 10/3 1000 м
[Sc Ci fib]
-22.2 -26.3 69 -22 -21 1036.5 958.8
09 9.01 З 2 50 км 10/4 1000 м
[Sc Ac trans Ci fib]
-21.4 -26.2 65 -27 -27 1035.9 958.4
12 9.01 З 1 н/о 10/3 1000 м
[Sc]
-21.8 -26.6 65 -25 -25 1036.0 958.5 -19.0
15 9.01 З 2 н/о 10/5 1000 м
[Sc Ac und Ci sp]
-21.8 -25.8 70 -28 -28 1035.4 957.9
18 9.01 З 2 н/о 10/6 600 м
[Cb cap Ci fib]
-21.1 -25.1 70 -27 -27 1035.3 958.0
21 9.01 штиль 0 н/о 4/4 600 м
[Cb cap]
-21.6 -25.6 70 -22 -22 1035.7 958.2
00 10.01 Ю 3 н/о 4/4 600 м
[Cb cap]
-22.6 -26.6 70 -31 -31 опасность
обморожения
1036.4 985.8 -23.1 3
03 10.01 З 2 50 км 10/5 1000 м
[Sc Ci fib]
-23.0 -27.0 70 -29 -29 1036.5 958.5 -23.6
06 10.01 З 1 50 км 10/0
[Ci sp]
-21.5 -25.6 69 -25 -23 1034.4 957.0
09 10.01 З 1 50 км 10/4 1000 м
[Sc]
-20.9 -24.9 70 -24 -24 1033.1 956.0
12 10.01 штиль 0 н/о 10/3 1000 м
[Sc Ci fib]
-21.4 -25.4 70 -21 -21 1033.1 955.8 -18.6
15 10.01 штиль 0 н/о 10/10 600 м
[Cb cap]
-21.2 -25.2 70 -21 -21 1032.2 955.1
18 10.01 штиль 0 н/о 10/6 600 м
[Cb cap Ci fib]
-20.9 -24.9 70 -21 -21 1032.3 955.2
21 10.01 штиль 0 н/о 10/10 600 м
[Cb cap]
-20.9 -24.9 70 -21 -21 1032.1 955.0
00 11.01 ЮЗ 1 н/о 10/10 600 м
[Cb cap]
-20.6 -23.9 75 -24 -24 1032.1 955.2 -21.5 3
03 11.01 ЮЗ 1 50 км 9/9 600 м
[Cb cap]
-20.6 -23.9 75 -24 -24 1034.1 957.0
06 11.01 штиль 0 50 км ясно -19.9 -24.0 70 -20 -17 1034.7 957.7
09 11.01 ЮЗ 1 50 км ясно -18.5 -22.6 70 -21 -21 1033.8 957.4
12 11.01 штиль 0 н/о ясно -21.2 -23.7 80 -21 -21 1036.5 959.1 -18.0
15 11.01 штиль 0 н/о ясно -21.3 -33.7 32 -21 -21 1038.3 959.8
18 11.01 З 1 н/о ясно -21.7 -24.2 80 -25 -25 1037.6 970.1
21 11.01 З 1 н/о ясно -20.8 -23.3 80 -24 -24 1037.2 959.9
00 12.01 штиль 0 н/о ясно -21.0 -23.5 80 -21 -21 1037.3 959.8 -21.1 3
03 12.01 штиль 0 50 км 10/0
[Ac As]
-21.4 -23.9 80 -21 -21 1038.4 960.7 -22.0
06 12.01 ЮВ 1 50 км 10/0
[Ci fib]
-19.1 -22.4 75 -22 -20 1036.0 959.2
09 12.01 штиль 0 50 км 10/6 600 м
[Cb cap Ci sp]
-17.0 -21.2 70 -17 -17 1035.2 959.1
12 12.01 штиль 0 н/о слаб. ливневой снег 9/9 600 м
[Cb cap]
-17.5 -20.1 80 -18 -18 1037.0 960.5 -15.8 0.0
15 12.01 штиль 0 н/о слаб. ливневой снег 10/10 600 м
[Cb cap]
-17.0 -19.6 80 -17 -17 1038.4 962.0
18 12.01 З 2 н/о {ливн. осадки} 4/4
[Cb cap]
-19.4 -22.0 80 -25 -25 1040.4 963.2
21 12.01 штиль 0 н/о ясно -21.4 -23.2 85 -21 -21 1043.8 965.7
03 13.01 штиль 0 50 км 5/0
[Ci fib]
-23.6 -25.5 84 -24 -23 1049.4 970.3 -23.7
06 13.01 штиль 0 50 км 10/0
[Ci fib]
-22.2 -24.1 84 -22 -20 1049.5 970.8
09 13.01 ЮЗ 1 50 км 10/0
[Ci fib]
-20.0 -22.6 80 -23 -23 1049.2 971.2
12 13.01 штиль 0 н/о ясно -20.9 -23.4 80 -21 -21 1051.6 973.1 -19.1
15 13.01 В 1 н/о 4/0
[Ci fib]
-22.8 -24.7 84 -26 -26 1053.4 974.3
18 13.01 штиль 0 н/о 5/0
[Ci fib]
-23.8 -25.7 84 -24 -24 1054.8 975.3
21 13.01 В 1 н/о 5/0
[Ci fib]
-24.4 -26.2 85 -28 -28 1056.3 976.4
00 14.01 штиль 0 н/о 3/0
[Ci fib]
-24.9 -26.8 84 -25 -25 1057.9 977.7 -25.3 3
03 14.01 ЮЗ 1 50 км 3/0
[Ci fib]
-25.2 -27.1 84 -29 -28 1058.9 978.6 -25.6
06 14.01 штиль 0 50 км 4/0
[Ci fib]
-23.6 -25.5 84 -24 -21 1057.2 977.5
09 14.01 штиль 0 50 км 1/0
[Ci fib]
-21.0 -24.3 75 -21 -21 1054.9 976.1
12 14.01 штиль 0 н/о ясно -21.9 -24.5 79 -22 -22 1055.1 976.0 -20.0
15 14.01 штиль 0 н/о ясно -22.8 -25.3 80 -23 -23 1054.6 975.4
18 14.01 штиль 0 н/о ясно -23.7 -25.6 84 -24 -24 1054.1 974.6
21 14.01 штиль 0 н/о ясно -25.1 -26.9 85 -25 -25 1053.4 973.5
03 15.01 штиль 0 50 км ясно -26.8 -28.7 84 -27 -26 1050.5 970.4 -27.1
06 15.01 штиль 0 50 км ясно -24.6 -27.2 79 -25 -22 1046.4 967.2
09 15.01 З 1 50 км ясно -22.3 -25.6 74 -26 -25 1042.4 964.3
12 15.01 З 1 50 км ясно -22.3 -25.6 74 -26 -26 1042.4 964.3
15 15.01 штиль 0 н/о ясно -25.2 -25.2 100 -25 -25 1041.4 963.2 -21.5
18 15.01 В 1 н/о ясно -24.9 -26.8 84 -28 -28 1041.1 962.2
21 15.01 штиль 0 н/о 5/0
[Ci fib]
-25.9 -27.8 84 -26 -26 1040.8 961.5
00 16.01 штиль 0 н/о 4/0
[Ci fib]
-26.2 -28.1 84 -26 -26 1041.1 961.9 -27.0 3
03 16.01 В 1 50 км 3/0
[Ci fib]
-27.2 -29.0 85 -31 -31 опасность
обморожения
1042.4 962.7 -27.3

 

Местоположение метеостанции Усть-Уса (Красноярский край, Россия): широта 51.95 долгота 92.22 высота над уровнем моря 577 м.

В архиве по умолчанию представлена погода в Усть-Усе за последнюю неделю. Архивные данные за месяц целиком и за предыдущие месяцы, начиная с января 2011 года, Вы можете получить, выбрав интересующий диапазон дат из раскрывающегося списка и нажав кнопку "Ввод!".


*Определитесь, кто Вы:
робот инопланетянин человек

Внимание! Время в таблицах - всемирное. Для получения местного времени необходимо прибавить поправку, которая равна 7 ч.

Смотрите также архив погоды в соседних городах и на ближайших метеорологических станциях:

Погода в Нижнеусинском (Красноярский край, Россия) (65 км)
Погода в Шагонаре (Тува, Россия) (69 км)
Погода в Чадане (Тува, Россия) (87 км)
Погода в Кантегире (Хакасия, Россия) (102 км)
Погода в Черемушках (Хакасия, Россия) (113 км)
Погода в Карловом Створе (Хакасия, Россия) (114 км)
Погода в Оленьей Речке (Красноярский край, Россия) (117 км)
Погода в Туране (Тува, Россия) (118 км)
Погода в Хандагайты (Тува, Россия) (135 км)
Погода в Саяногорске (Хакасия, Россия) (139 км)

Пояснения к столбцам:

Ветер - указаны скорость ветра в м/с - средняя за 10 мин, порывы в срок и между сроками (в фигурных скобках) и направление, откуда дует ветер: С - северный, СВ - северо-восточный, В - восточный, ЮВ - юго-восточный, Ю - южный, ЮЗ - юго-западный, З - западный, СЗ - северо-западный.
Видимость - горизонтальная дальность видимости в метрах или километрах. При видимости от 1 до 10 км при отсутствии осадков обычно наблюдается дымка, при ухудшении видимости до 1 км и менее - туман. В сухую погоду видимость может ухудшаться дымом, пылью или мглою.
Явления - указаны атмосферные явления, наблюдавшиеся в срок или в последний час перед сроком; фигурными скобками обозначены явления, наблюдавшиеся между сроками (за 1-3 часа до срока); квадратными скобками обозначены град или гололедные отложения с указанием их диаметра в мм.
Облачность - указаны через наклонную черту общая и нижняя облачность в баллах и высота нижней границы облаков в метрах; квадратными скобками обозначены формы облаков: Ci - перистые, Cs - перисто-слоистые, Cc - перисто-кучевые, Ac - высококучевые, As - высокослоистые, Sc - слоисто-кучевые, Ns - слоисто-дождевые, Cu - кучевые, Cb - кучево-дождевые. Подробнее классификацию облаков см. в Атласе облаков (PDF).
T - Температура воздуха - температура, измеренная на высоте 2 м над землей.
Td - Температура точки росы - температура, при понижении до которой содержащийся в воздухе водяной пар достигнет насыщения.
f - Относительная влажность воздуха - влажноcть воздуха, измеренная на высоте 2 м над землей.
Te - Эффективная температура - температура, которую ощущает одетый по сезону человек в тени. Характеристика душности погоды. При расчете учитывается влияние влажности воздуха и скорости ветра на теплоощущения человека.
Tes - Эффективная температура на солнце - температура, которую ощущает человек, с поправкой на солнечный нагрев. Характеристика знойности погоды. Зависит от высоты солнца над горизонтом, облачности и скорости ветра. Ночью, в пасмурную погоду, а также при ветре 12 м/с и более поправка равна нулю.
P - Атмосферное давление - приведенное к уровню моря атмосферное давление.
Po - Атмосферное давление - измеренное на уровне метеостанции атмосферное давление.
Tmin - Минимальная температура - минимум температуры воздуха на высоте 2 м над землей.
Tmax - Максимальная температура - максимум температуры воздуха на высоте 2 м над землей.
R - Количество осадков - Количество выпавших осадков за период времени, мм. При наведении курсора мыши на число - период времени, за который выпало указанное количество осадков.
R24 - Количество осадков - Количество выпавших осадков за 24 часа, мм.
S - Снежный покров - Высота снежного покрова, см. При наведении курсора мыши на число - состояние снежного покрова и степень покрытия местности в баллах.